Location: Beaver Brook Station
(42.3793°N, 71.2203°W)
Time: 01:16:39
(UTC+00:00)

SeaSat 1 - Pass Details

Date: 29 October 2020
Orbit: 744 x 747 km, 108.0° (Epoch: 05 December)

Event Time Altitude Azimuth Distance (km) Brightness Sun altitude
Exits shadow 23:00:03 18° 51° (NE) 1,802 3.9 -15.0°
Maximum altitude 23:00:17 18° 47° (NE) 1,799 4.0 -15.1°
Drops below altitude 10° 23:03:29 10° 6° (N) 2,271 4.8 -15.7°
Sets 23:06:26 0° 348° (NNW) 3,200 5.8 -16.2°
